Weather History for KRDR - November, 2012

Change the Weather History Date:

Saturday, November 24, 2012

  Actual Average Record
Temperature  
Mean Temperature 14 °F -  
Max Temperature 28 °F 29 °F 54 °F (2011)
Min Temperature -1 °F 14 °F -7 °F (1996)
Degree Days  
Heating Degree Days 52    
Moisture  
Dew Point 11 °F    
Average Humidity 80    
Maximum Humidity 85    
Minimum Humidity 74    
Precipitation  
Precipitation 0.00 in - - ()
Sea Level Pressure  
Sea Level Pressure 29.99 in    
Wind  
Wind Speed 11 mph (South)    
Max Wind Speed 21 mph    
Max Gust Speed 30 mph    
Visibility 10 miles    
Events Snow    
Averages and records for this station are not official NWS values.
T = Trace of Precipitation, MM = Missing Value Source: NWS Daily Summary

Daily Weather History Graph

Daily Weather History Graph

Search for Another Location

Airport or City:

Trip Planner

Search our weather history database for the weather conditions in past years. The results will help you decide how hot, cold, wet, or windy it might be!

Date:

Astronomy

Nov. 24, 2012 Rise Set
Actual Time 7:49 AM CST 4:42 PM CST
Civil Twilight 7:14 AM CST 5:17 PM CST
Nautical Twilight 6:36 AM CST 5:56 PM CST
Astronomical Twilight 5:59 AM CST 6:33 PM CST
Moon 2:39 PM CST (11/24) 3:54 AM CST (11/24)
Length of Visible Light 10h 02m
Length of Day
8h 53m
Waxing Gibbous, 87% of the Moon is Illuminated
Nov 24
Waxing Gibbous
Nov 28
Full
Dec 6
Last Quarter
Dec 13
New
Dec 19
First Quarter

Hourly Weather History & Observations

Time (CST) Temp. Windchill Dew Point Humidity Pressure Visibility Wind Dir Wind Speed Gust Speed Precip Events Conditions
12:13 AM 3.2 °F - -2.2 °F 78% 30.37 in 10.0 mi Calm Calm - N/A   Scattered Clouds
12:55 AM 1.6 °F -6.0 °F -2.7 °F 82% 30.36 in 10.0 mi SSW 3.5 mph - N/A   Clear
1:55 AM -0.2 °F - -4.4 °F 83% 30.33 in 10.0 mi Calm Calm - N/A   Clear
2:55 AM -1.1 °F -9.1 °F -5.8 °F 81% 30.31 in 10.0 mi South 3.5 mph - N/A   Clear
3:55 AM 3.4 °F -5.9 °F -0.8 °F 83% 30.27 in 10.0 mi South 4.6 mph - N/A   Mostly Cloudy
4:55 AM 8.6 °F -6.3 °F 4.6 °F 84% 30.21 in 10.0 mi South 11.5 mph - N/A   Overcast
5:55 AM 10.2 °F -5.0 °F 6.1 °F 83% 30.19 in 10.0 mi South 12.7 mph - N/A   Overcast
5:57 AM 10.4 °F -5.4 °F 6.8 °F 85% 30.18 in 10.0 mi South 13.8 mph - N/A   Overcast
6:28 AM 10.4 °F -6.0 °F 6.8 °F 85% 30.17 in 10.0 mi South 15.0 mph - N/A   Overcast
6:30 AM 10.4 °F -6.0 °F 6.8 °F 85% 30.17 in 10.0 mi South 15.0 mph - N/A   Overcast
6:55 AM 11.3 °F -4.9 °F 6.3 °F 80% 30.15 in 10.0 mi South 15.0 mph - N/A   Overcast
7:25 AM 12.2 °F -3.7 °F 6.8 °F 79% 30.12 in 10.0 mi SSE 15.0 mph - N/A   Overcast
7:36 AM 12.2 °F -4.3 °F 6.8 °F 79% 30.12 in 10.0 mi South 16.1 mph - N/A   Overcast
7:55 AM 11.8 °F -3.0 °F 6.8 °F 80% 30.10 in 10.0 mi SSE 12.7 mph - N/A   Overcast
8:42 AM 12.2 °F -4.8 °F 6.8 °F 79% 30.06 in 10.0 mi SSE 17.3 mph - N/A   Overcast
8:55 AM 12.6 °F -4.4 °F 7.5 °F 80% 30.05 in 10.0 mi SSE 17.3 mph - N/A   Overcast
8:58 AM 12.2 °F -4.8 °F 6.8 °F 79% 30.05 in 10.0 mi South 17.3 mph - N/A   Overcast
9:00 AM 12.2 °F -4.8 °F 6.8 °F 79% 30.05 in 10.0 mi South 17.3 mph - N/A Snow Light Snow
9:12 AM 12.2 °F -3.1 °F 8.6 °F 85% 30.05 in 10.0 mi South 13.8 mph - N/A   Overcast
9:17 AM 12.2 °F -4.3 °F 8.6 °F 85% 30.04 in 10.0 mi South 16.1 mph - N/A   Overcast
9:30 AM 14.0 °F -0.8 °F 8.6 °F 79% 30.03 in 10.0 mi SSE 13.8 mph - N/A   Overcast
9:34 AM 14.0 °F -2.0 °F 8.6 °F 79% 30.03 in 10.0 mi SSE 16.1 mph - N/A   Overcast
9:55 AM 13.8 °F -1.7 °F 8.8 °F 80% 30.03 in 9.0 mi South 15.0 mph - 0.00 in   Overcast
10:16 AM 14.0 °F -1.4 °F 8.6 °F 79% 30.01 in 10.0 mi SSE 15.0 mph - N/A   Overcast
10:23 AM 14.0 °F -1.4 °F 8.6 °F 79% 30.01 in 10.0 mi South 15.0 mph - N/A   Overcast
10:34 AM 14.0 °F -2.0 °F 8.6 °F 79% 30.01 in 10.0 mi South 16.1 mph - N/A   Overcast
10:55 AM 15.4 °F 0.4 °F 9.9 °F 79% 30.00 in 10.0 mi South 15.0 mph - N/A   Overcast
11:55 AM 16.9 °F 1.2 °F 11.3 °F 79% 29.91 in 10.0 mi SSE 17.3 mph - N/A   Overcast
12:11 PM 17.6 °F 2.2 °F 12.2 °F 79% 29.90 in 10.0 mi SSE 17.3 mph - N/A   Overcast
12:43 PM 17.6 °F 2.2 °F 12.2 °F 79% 29.90 in 10.0 mi South 17.3 mph - N/A   Overcast
12:55 PM 18.5 °F 3.8 °F 12.7 °F 78% 29.90 in 10.0 mi South 16.1 mph - N/A   Overcast
1:08 PM 19.4 °F 6.0 °F 12.2 °F 74% 29.88 in 10.0 mi South 13.8 mph - N/A   Overcast
1:55 PM 19.9 °F 5.2 °F 14.0 °F 78% 29.86 in 10.0 mi South 17.3 mph - N/A   Overcast
2:27 PM 21.2 °F 5.6 °F 15.8 °F 80% 29.80 in 10.0 mi South 20.7 mph - N/A Snow Light Snow
2:34 PM 21.2 °F 6.0 °F 15.8 °F 80% 29.79 in 10.0 mi South 19.6 mph 29.9 mph N/A   Mostly Cloudy
2:40 PM 21.2 °F 6.4 °F 15.8 °F 80% 29.80 in 9.0 mi South 18.4 mph 29.9 mph N/A Snow Light Snow
2:55 PM 21.4 °F 9.1 °F 16.2 °F 80% 29.82 in 10.0 mi South 12.7 mph - 0.00 in Snow Light Snow
2:57 PM 21.2 °F 7.8 °F 15.8 °F 80% 29.82 in 10.0 mi South 15.0 mph - N/A   Overcast
3:07 PM 21.2 °F 7.3 °F 15.8 °F 80% 29.82 in 10.0 mi South 16.1 mph - N/A   Overcast
3:13 PM 21.2 °F 8.3 °F 15.8 °F 80% 29.81 in 10.0 mi South 13.8 mph - N/A   Overcast
3:18 PM 23.0 °F 9.6 °F 17.6 °F 80% 29.80 in 10.0 mi South 16.1 mph - N/A   Overcast
3:55 PM 23.0 °F 9.6 °F 17.2 °F 79% 29.81 in 10.0 mi South 16.1 mph - 0.00 in   Overcast
4:05 PM 23.0 °F 10.6 °F 17.6 °F 80% 29.79 in 10.0 mi South 13.8 mph - N/A   Overcast
4:10 PM 23.0 °F 10.1 °F 17.6 °F 80% 29.79 in 10.0 mi South 15.0 mph - N/A   Overcast
4:12 PM 23.0 °F 10.1 °F 17.6 °F 80% 29.79 in 10.0 mi South 15.0 mph - N/A   Overcast
4:55 PM 23.5 °F 15.4 °F 18.0 °F 79% 29.81 in 10.0 mi South 6.9 mph - N/A   Overcast
5:55 PM 24.1 °F 16.0 °F 19.0 °F 81% 29.80 in 10.0 mi SSE 6.9 mph - N/A   Overcast
6:55 PM 24.8 °F 20.5 °F 20.1 °F 82% 29.83 in 10.0 mi South 3.5 mph - N/A   Overcast
7:55 PM 27.3 °F 19.1 °F 22.5 °F 82% 29.84 in 10.0 mi NW 8.1 mph - N/A   Overcast
8:55 PM 28.2 °F 15.5 °F 22.1 °F 78% 29.86 in 10.0 mi NNW 18.4 mph 26.5 mph N/A   Overcast
9:55 PM 26.2 °F 13.0 °F 20.1 °F 78% 29.88 in 10.0 mi NNW 18.4 mph 24.2 mph N/A   Overcast
10:55 PM 25.0 °F 12.6 °F 19.0 °F 78% 29.91 in 10.0 mi NNW 15.0 mph - N/A   Overcast
11:55 PM 25.0 °F 13.1 °F 19.0 °F 78% 29.93 in 10.0 mi NNW 13.8 mph - N/A   Overcast